Location: Charlottesville
(38.0290°N, 78.4770°W)
Time: 02:06:56
(UTC-04:00)

Hubble Space Telescope - Pass Details

Date: 07 October 2017
Orbit: 537 x 541 km, 28.5° (Epoch: 23 October)

Event Time Altitude Azimuth Distance (km) Brightness Sun altitude
Exits shadow 05:36:40 21° 188° (S) 1,231 2.4 -20.2°
Maximum altitude 05:36:54 21° 183° (S) 1,227 2.4 -20.1°
Drops below altitude 10° 05:40:04 10° 133° (SE) 1,788 3.9 -19.5°
Sets 05:42:43 0° 117° (ESE) 2,679 5.2 -19.0°
